SCP
0 0 0 0 0 0 0 0 0 0 0 0 0 0 0 0 0 0 0 0 0 0 0 0 0 0 0 0 0 0 0 0 0 0 0 0 0 0 0 0 0 0 0 0
0 0 0 0 0 0 0 0 0 0 0 0 0 0 0 0 0 0 0 0 0 0 0 0 0 0 0 0 0 0 0 0 0 0 0 0 0 0 0 0 0 0 0 0
0 0 0 0 0 0 0 0 0 0 0 0 0 0 0 0 0 0 0 0 0 0 0 0 0 0 0 0 0 0 0 0 0 0 0 0 0 0 0 0 0 0 0 0
0 0 0 0 0 0 0 0 0 0 0 0 0 0 -0 -0 -0 -0 0 0 0 0 0 0 0 0 0 0 0 0 0 0 0 0 0 0 0 0 0 0 0 0 0 0
0 0 0 0 0 0 0 0 0 0 0 0 0 0 0 0 -0 0 0 0 0 0 0 0 0 0 0 0 0 0 0 0 0 0 0 0 0 0 0 0 0 0 0 0
0 0 0 0 0 0 0 0 0 0 0 0 0 0 0 0 0 0 0 0 0 0 0 0 0 0 0 0 0 0 0 0 0 0 0 0 0 0 0 0 0 0 0 0
0 0 0 0 0 0 0 0 0 0 0 0 0 0 0 0 0 0 0 0 0 0 0 0 0 0 0 0 0 0 0 0 0 0 0 0 0 0 0 0 0 0 0 0
0 0 0 0 0 0 0 0 0 0 0 0 0 0 0 0 0 0 0 0 0 0 0 0 0 0 0 0 0 0 0 0 0 0 0 0 0 0 0 0 0 0 0 0
0 0 0 0 0 0 0 0 0 0 0 0 0 0 0 0 0 0 0 0 0 0 0 0 0 0 0 0 0 0 0 0 0 0 0 0 0 0 0 0 0 0 0 0
0 0 0 0 0 0 0 0 0 0 0 0 0 0 0 0 0 0 0 0 0 0 0 0 0 0 0 0 0 0 0 0 0 0 -0 -0 0 0 0 0 0 0 0 0
0 0 0 0 0 0 0 0 0 0 0 0 0 0 0 0 0 0 0 0 0 0 0 0 0 0 0 0 0 0 0 0 0 0 0 -0 0 0 0 0 0 0 0 0
0 0 0 0 0 0 0 0 0 0 0 0 0 0 0 0 0 0 0 0 0 0 0 0 0 0 0 0 0 0 0 0 0 0 0 0 0 0 0 0 0 0 0 0
0 0 0 0 0 0 0 0 0 0 0 0 0 0 0 0 0 0 0 0 0 -0 0 0 0 0 0 0 0 0 0 0 0 0 0 0 0 0 0 0 0 0 0 0
0 0 0 0 0 0 0 0 0 0 0 0 0 0 0 0 0 0 0 0 0 0 0 0 0 0 0 0 0 0 0 0 0 0 0 0 0 0 0 0 0 0 0 0
0 0 0 0 0 0 0 0 0 0 0 0 0 0 0 0 0 0 0 0 0 0 0 0 0 0 0 0 0 0 0 0 0 0 0 0 0 0 0 0 0 0 0 0
0 0 0 0 0 0 0 0 0 0 0 0 0 0 0 0 0 0 0 0 0 0 0 0 0 0 0 0 0 0 0 0 0 0 0 0 0 0 0 0 0 0 0 0
0 0 0 0 0 0 0 0 0 0 0 0 0 0 0 0 0 0 0 0 0 0 0 0 0 0 -0 -0 -0 -0 -0 -0 0 0 0 0 0 0 0 0 0 0 0 0
0 0 0 0 0 0 0 0 0 0 0 0 0 0 0 0 0 0 0 0 0 0 0 0 0 0 0 0 0 0 0 0 0 0 0 0 0 0 0 0 0 0 0 0
0 0 0 0 0 0 0 0 0 0 0 0 0 0 0 0 0 0 0 0 0 0 0 0 0 0 0 0 0 0 0 0 0 0 0 0 0 0 0 0 0 0 0 0
0 0 0 0 0 0 0 0 0 0 0 0 0 0 0 0 0 0 0 0 0 0 0 0 0 0 0 0 0 0 0 0 0 0 0 0 0 0 0 0 0 0 0 0
0 0 0 0 0 0 0 0 0 0 0 0 0 0 0 0 0 0 0 0 0 0 0 0 0 0 0 0 0 0 0 0 0 0 0 0 0 0 0 0 0 0 0 0
0 0 0 0 0 0 0 0 0 0 0 0 0 0 0 0 0 0 0 0 0 0 0 0 0 0 0 0 0 0 0 0 0 0 0 0 0 0 0 0 0 0 0 0
0 0 0 0 0 0 0 0 0 0 0 0 0 0 0 0 0 0 0 0 0 0 0 0 0 0 0 0 0 0 0 0 0 0 0 0 0 0 0 0 0 0 0 0
0 0 0 0 0 0 0 0 0 0 0 0 0 0 0 0 0 0 0 0 0 0 0 0 0 0 0 0 0 0 0 0 0 0 0 0 0 0 0 0 0 0 0 0
0 0 0 0 0 0 0 0 0 0 0 0 0 0 0 0 0 0 0 0 0 0 0 0 0 0 0 0 0 0 0 0 0 0 0 0 0 0 0 0 0 0 0 0
0 0 0 0 0 0 0 0 0 0 0 0 0 0 0 0 0 0 0 0 0 0 0 0 0 0 0 0 0 0 0 0 0 0 0 0 0 0 0 0 0 0 0 0
Wind_Speed
5 8 12 16 19 18 13 15 20 20 17 14 20 23 20 20 20 22 22 20 19 17 14 11 9 8 6 6 9 11 12 13 12 11 12 12 13 13 13 13 15 17 16 17
5 13 17 12 6 10 14 18 22 20 14 11 18 23 19 19 20 20 19 18 16 14 12 10 9 7 6 5 5 7 10 11 13 11 10 8 9 10 12 11 14 17 17 18
15 5 4 9 11 12 15 15 17 18 16 11 14 16 9 9 12 15 17 16 12 9 10 10 10 11 12 11 10 7 6 8 10 11 9 7 7 8 9 12 12 15 17 17
11 5 3 7 11 13 16 13 15 15 12 10 6 18 7 10 12 14 15 9 6 8 9 11 14 16 16 15 14 12 10 6 6 9 10 12 11 12 11 10 10 13 16 17
7 4 5 9 11 10 10 4 5 7 10 13 8 13 10 8 10 12 7 6 10 12 13 15 16 16 17 17 16 15 13 11 7 6 10 12 13 12 10 9 11 13 13 17
7 2 5 6 3 4 3 1 2 3 5 15 10 11 12 6 6 4 7 12 14 14 16 17 18 17 18 18 17 17 17 16 13 8 8 12 14 14 13 13 11 10 10 13
5 5 5 3 3 2 4 4 6 7 7 12 1 8 9 5 3 5 10 13 15 17 18 18 19 18 18 19 19 18 18 17 16 13 9 10 13 15 16 14 12 12 10 11
10 11 6 7 7 4 6 7 7 9 12 16 5 12 7 2 3 8 11 13 15 17 16 16 16 15 16 17 18 18 17 17 17 15 13 11 11 10 10 13 13 13 11 12
8 8 1 3 4 4 5 7 4 5 8 14 16 13 6 4 2 9 12 14 15 14 14 14 14 15 15 16 16 16 16 16 16 16 15 13 12 11 12 13 13 12 12 11
3 10 6 2 2 5 6 3 2 5 7 13 19 24 17 5 2 8 10 11 11 11 12 12 12 13 13 13 13 14 15 15 15 15 14 11 13 13 12 12 13 13 14 14
4 8 9 5 10 13 8 7 9 9 8 10 14 16 2 7 6 6 8 8 9 10 11 11 11 11 11 12 12 13 14 14 14 14 14 13 13 13 12 11 12 13 13 14
7 7 12 14 12 12 16 18 17 16 17 15 16 17 2 7 8 7 6 6 6 7 8 9 10 11 11 12 13 13 13 13 13 13 13 13 13 13 13 13 13 13 13 13
3 5 8 9 6 2 5 6 8 10 11 14 18 13 3 2 4 5 4 3 4 5 7 8 9 10 11 12 12 13 13 13 13 13 13 13 14 14 15 15 14 13 12 13
4 8 12 18 18 11 10 11 11 12 11 14 17 19 18 19 11 6 4 4 5 6 7 8 8 9 10 10 11 12 13 12 13 13 13 13 14 14 15 15 14 14 13 13
1 9 14 17 18 15 16 18 20 21 21 20 23 28 26 15 9 7 7 8 9 9 9 9 9 10 10 11 11 11 12 12 12 13 13 13 13 14 14 14 14 14 13 12
1 6 6 12 19 19 22 26 27 28 27 28 29 29 5 4 6 8 11 12 13 13 13 12 12 12 11 11 11 11 11 11 11 12 12 12 13 13 14 14 15 14 14 13
5 6 7 14 15 13 19 22 25 25 24 22 22 8 4 4 8 11 13 14 15 16 15 15 15 14 13 12 12 12 11 11 11 11 11 11 12 13 14 14 15 15 14 14
9 7 5 6 2 17 12 3 7 12 10 4 3 5 0 7 11 13 13 15 16 17 17 17 16 17 15 14 13 12 11 11 11 11 11 11 11 12 14 15 15 15 14 14
14 10 7 5 9 14 11 7 5 7 7 6 6 4 6 11 15 16 13 13 16 17 18 17 17 18 17 16 14 12 13 13 13 13 12 11 11 12 14 15 16 15 15 15
6 12 9 8 9 11 6 3 2 2 7 5 6 8 13 14 15 15 15 16 17 18 17 18 18 18 18 16 13 13 15 15 15 14 13 13 12 11 14 15 17 16 15 16
4 7 12 13 12 11 6 4 4 6 4 4 8 13 15 16 16 18 19 19 19 20 20 19 19 17 16 14 13 16 17 17 15 14 14 14 13 13 15 16 15 16 16 16
8 7 8 6 9 11 4 6 7 6 7 13 15 16 16 18 19 19 20 20 19 20 20 18 16 17 17 15 15 18 20 18 15 14 15 15 14 14 14 16 17 16 16 17
10 9 6 10 10 5 6 9 12 14 18 20 19 19 19 19 20 21 20 19 19 18 16 15 15 18 18 16 14 18 19 17 16 14 15 15 17 16 16 16 18 16 15 14
10 9 9 10 16 18 18 20 20 20 20 20 18 16 15 17 18 17 16 16 16 16 15 15 16 18 19 16 15 16 17 16 14 17 19 18 18 19 17 15 14 14 14 14
14 7 10 16 20 20 21 20 20 19 14 10 8 7 9 10 12 13 14 14 14 15 15 15 16 18 20 20 19 17 17 18 20 21 20 20 19 19 17 17 15 17 16 17
18 17 17 19 20 18 20 19 15 13 9 4 6 7 7 8 11 13 13 13 14 15 16 16 18 19 20 20 20 19 17 18 20 20 19 16 16 15 16 16 17 24 26 30
Wind_Direction
167 202 216 222 224 248 282 278 277 278 280 283 280 282 284 286 283 277 275 275 274 279 293 319 330 319 288 258 241 232 226 218 210 208 210 215 218 217 218 219 215 210 205 200
171 230 236 246 248 250 260 270 276 283 285 279 284 287 284 269 264 267 274 277 283 297 318 347 356 353 344 327 294 258 240 225 213 214 213 221 227 225 223 221 220 215 210 205
231 262 238 223 233 244 250 257 274 283 302 280 293 286 254 245 254 264 265 268 285 317 341 1 12 19 19 11 356 331 291 252 228 221 220 222 234 242 229 223 221 217 214 212
248 272 206 212 233 234 263 258 265 278 288 288 317 300 285 231 250 257 264 284 339 22 27 28 27 28 25 16 10 3 350 321 265 229 224 223 226 233 235 230 225 219 215 217
237 214 204 225 240 220 250 298 270 270 272 281 251 272 299 190 240 257 281 11 40 42 39 37 34 32 29 22 18 13 11 5 337 259 233 234 240 248 253 244 233 224 215 216
260 221 227 237 260 219 227 304 264 241 262 274 271 250 297 191 236 290 42 52 46 39 39 37 35 32 28 24 23 20 18 16 4 333 273 251 252 256 257 251 243 231 221 215
255 219 224 203 210 156 177 240 281 274 255 273 115 246 272 251 317 25 44 44 41 42 41 35 29 26 24 22 22 20 20 18 11 0 335 296 276 269 263 259 251 242 230 220
282 276 212 198 217 217 195 218 242 270 278 286 258 256 266 263 40 59 57 52 47 42 38 34 29 24 21 20 18 17 17 14 10 6 356 337 313 289 276 268 260 251 241 231
265 274 50 189 212 188 190 220 262 261 275 280 268 261 259 234 89 55 49 46 41 37 33 28 23 21 18 16 15 12 12 11 8 4 359 351 339 318 297 284 272 263 253 243
251 280 270 288 194 227 237 231 172 219 240 254 269 276 278 230 114 53 47 42 36 30 27 23 19 16 14 11 8 9 9 8 4 2 1 353 348 338 320 302 286 274 264 253
191 256 273 237 229 245 225 215 222 234 230 248 264 270 1 116 88 68 57 43 32 24 19 16 12 8 5 4 3 3 2 1 359 357 355 353 353 348 339 324 308 293 278 264
217 243 264 261 258 256 255 248 240 243 244 242 254 262 124 107 93 85 70 48 34 22 12 6 2 359 358 357 356 355 355 355 353 349 347 347 350 350 348 341 328 312 294 276
202 232 270 271 240 193 245 259 265 268 268 258 259 262 144 134 77 73 57 39 16 356 353 351 350 349 348 347 345 345 345 346 345 344 343 345 347 346 345 342 335 324 307 289
305 248 251 266 279 296 281 280 279 275 271 273 269 279 284 293 318 345 353 342 326 324 328 331 334 333 333 333 334 335 335 337 338 337 338 341 342 340 338 335 334 329 316 299
310 262 267 272 280 284 281 279 275 271 271 273 277 280 286 308 327 331 328 321 315 316 320 323 322 320 320 321 322 323 322 327 330 330 330 333 333 333 331 331 330 327 320 306
209 257 269 271 272 276 277 272 271 270 271 269 270 273 322 16 327 319 320 321 318 316 317 316 314 312 311 310 308 307 309 314 319 318 320 323 325 327 327 326 324 323 321 314
235 236 255 270 285 291 265 261 267 269 270 276 280 296 81 349 325 318 313 312 311 310 310 311 311 309 307 304 301 297 298 301 301 303 306 312 317 319 320 320 319 318 318 315
241 235 240 266 277 251 269 329 273 271 274 263 169 147 184 321 312 302 296 296 298 301 304 307 308 307 305 301 296 292 288 287 287 289 292 299 307 310 313 314 313 313 311 308
229 226 220 218 246 268 283 255 222 240 254 210 195 213 298 311 305 294 294 292 291 293 297 300 301 301 300 298 296 291 285 283 283 284 287 292 298 301 305 306 306 307 306 302
206 213 221 219 237 249 263 133 138 226 259 196 211 264 296 305 299 300 311 303 294 292 293 295 297 298 296 296 295 288 286 285 283 284 286 289 291 291 294 297 299 298 297 293
173 200 220 230 243 259 259 170 173 228 255 187 240 273 289 289 286 295 298 296 293 293 293 294 296 294 293 295 294 288 286 285 288 289 286 284 286 289 290 291 291 292 291 290
205 210 209 210 230 251 175 172 218 255 289 291 291 289 287 287 290 293 294 296 297 297 297 298 297 293 294 296 294 289 287 292 295 291 288 289 290 290 288 287 287 286 285 283
224 222 203 200 231 259 197 224 262 281 287 291 292 290 289 291 294 297 299 300 301 302 302 303 300 296 295 298 299 293 296 304 304 299 293 291 290 287 284 282 282 282 278 274
240 228 234 247 259 264 267 269 274 277 279 282 286 289 290 294 299 301 301 302 305 306 307 310 307 300 299 306 308 306 310 313 308 298 295 293 291 288 284 279 275 272 270 270
245 229 238 252 264 273 269 269 272 276 278 282 291 297 302 305 301 303 303 305 308 310 313 313 307 303 303 307 307 310 310 307 300 296 293 291 287 285 284 278 270 270 263 262
249 246 247 256 264 268 275 281 285 282 286 305 309 304 312 314 306 308 306 309 312 311 312 308 304 302 303 305 303 303 302 299 295 293 291 289 287 284 282 281 280 273 269 271